星链-5149 (STARLINK-5149 )

导读

STARLINK-5149是美国太空探索技术公司星链星座的一颗卫星,于2022年10月5日发射入轨,归属星链互联网卫星星座组网。星链系统旨在为全球提供高速低延迟互联网服务,该卫星承担星座通信组网任务,依托批量发射组网模式,推进全球覆盖的卫星互联网布局,服务地面各类互联网接入需求。

Basic Information
目录编号:
53981
目录名称:
STARLINK-5149
国际标识:
2022-125T
轨道中心:
EARTH
卫星名称:
星链-5149
卫星全名:
星链-5149 (STARLINK-5149 )
卫星状态:
在轨 (已飞行1351 天)
发射日期:
2022-10-05 UTC
国别 :
美国 (US)
星等 :
--
Orbit Information
数据来源 国际轨道数据 AOE轨道数据
星历时间 2026-06-17T11:56:51+0800
4小时前
查看轨道信息
2026-06-14T03:00:00+0800
3天前
查看轨道信息
半长轴 6917.952km 6917.896km
偏心率 0.0001544 0.0001385
轨道倾角 53.161° 53.159°
近地点辐角 89.607° 89.147°
升交点赤经 117.243° 132.403°
平近点角 270.510° 300.578°
近地点 538.746km 538.8km
远地点 540.884km 540.718km
周期 95.439分钟 95.438分钟
每日圈数 15.088166 15.088351
Detailed Information
固有亮度:
5
最大亮度:
2.5
卫星平台:
Starlink v1.5
覆盖范围:
全球
运营商:
太空探索技术公司
运营商所在国:
美国
制造商(研发单位):
太空探索技术公司
制造商所在国:
美国
使用方式:
暂无
Satellite Introduction
星链(Starlink)计划是由太空探索技术公司(SpaceX)提出的一个巨型低轨卫星互联网星座项目,计划在2019年至2024年间在太空搭建由约1.2万颗卫星组成的“星链”网络,其中1584颗将部署在地球上空550千米处的近地轨道,并从2020年开始工作。该卫星仍在工作。
2D Orbit Map
3D Orbit Map
Orbit Altitude Analysis Chart
Orbit Inclination Analysis Chart
Orbit Comprehensive Analysis Chart
View Comprehensive Chart